Location: Newark
(55.7167°N, 12.5667°E)
Time: 17:38:27
(UTC+00:00)

N. Korean satellite - Pass Details

Date: 10 December 2019
Orbit: 454 x 507 km, 97.2° (Epoch: 28 January)

Event Time Altitude Azimuth Distance (km) Brightness Sun altitude
Rises 17:13:51 0° 209° (SSW) 2,605 10.9 -20.3°
Reaches altitude 10° 17:16:36 10° 232° (SW) 1,722 10.2 -20.7°
Maximum altitude 17:18:57 16° 271° (W) 1,384 9.8 -21.0°
Drops below altitude 10° 17:21:19 10° 311° (NW) 1,721 9.8 -21.4°
Sets 17:24:04 0° 334° (NNW) 2,602 10.5 -21.8°
